Showing default

COSMOS 2167, 21781

Orbit data source: Space-Track

COSMOS 2167, 21781 is a payload satellite owned by UNKS RF (CIS) in LEO that was launched on Tue, 12 Nov 1991 UTC via a TSIKLON-3 launch vehicle from the Plesetsk Missile And Space Complex (PKMTR). Payload-class satellites include a variety of spacecraft equipped with specific instruments for various scientific and technological missions. These include communications satellites like Starlink; space stations such as the ISS; scientific satellites like the Hubble; Earth observation satellites from companies like Planet Labs, Umbra, and HawkEye 360; GPS; miniature CubeSats for education and research; and military/defense satellites.

Loading next visibility...
Identifier
21781, 1991-077C
Orbit
LEO
Country
Flag of CISCIS
Related business
Manufacturer
NPO PM
Mission
Defense Communications
Bus & Motor
STRELA-3, Unknown motor
Mass
225 kg wet, 225 kg dry
Launch date (UTC)
1991-11-12 (34 years ago)
Launch vehicle
TSIKLON-3
Launch site
Plesetsk Missile And Space Complex (PKMTR)
Object type
Payload
Rocket body
Debris
Shape & HBR
Cyl, 0.8 m
Radar Cross Section
1.257 m², Large (>1 m²)

Expand to show TLE details & history
Last TLE update: 14 hours ago

TLE from 14 hours ago
0 COSMOS 2167
1 21781U 91077C   25310.65644845  .00000048  00000-0  20202-3 0  9997
2 21781  82.6097  22.7259 0006355 219.3682 293.7938 12.64284008567824
Epoch: 2025-11-06T15:45Z
TLE epoch observation values (Epoch: 2025-11-06T15:45:17.146Z)
Latitude
26.69706°
Longitude
-83.42852°
Altitude
1,406.433 km
Speed
7.16 km/s
True Right ascension
13h 16m 01s
True Declination
26° 34' 15"
Sunlit
Object was in daylight at epoch
Visualization orbit readout
Latitude
Unknown
Longitude
Unknown
Altitude
Unknown
Speed
Unknown
Apparent Right ascension
Unknown
Apparent Declination
Unknown
Sunlit
N/A
Visualization observer readout
Local Sidereal Time
01:52:47
Azimuth
Unknown
Elevation
Unknown
Doppler factor
Unknown
Orbital elements
Apogee altitude
1,407.573 km
Perigee altitude
1,397.684 km
Semi-major axis
7,780.766 km
Eccentricity
0.00064
Inclination
82.6097°
RAAN
22.7259°
Arg. of periapsis
219.3682°
True anomaly
293.72715°
Mean anomaly
293.7938°
Eccentric anomaly
293.76047°
Mean motion
3.16235 °/min
Orbital period
113.84 mins
BSTAR
0.00020202
Loading maneuver chart data...
Computing Atmospheric mass density...
Loading historical data...
Loading historical data...
Loading historical data...
Loading historical data...
Loading historical data...
Loading historical data...
Loading historical data...

Documentation

Showing up to 5 results
|